Location: Unspecified
(35.6961°N, 0.0000°E)
Time: 23:25:40
(UTC+00:00)

S-56A Canister/Altair - Visible Passes

Search period start: 01 October 2020 00:00
Search period end: 11 October 2020 00:00
Orbit: 632 x 2500 km, 38.9° (Epoch: 01 October)

Date Brightness Start Highest point End Pass type
(mag) Time Alt. Az. Time Alt. Az. Time Alt. Az.
01 Oct 9.7 17:50:11 10° WNW 18:04:44 90° NNE 18:14:58 10° ESE visible
01 Oct 9.7 19:58:15 10° WNW 20:09:45 45° SW 20:13:21 33° S visible
02 Oct 9.8 19:24:18 10° WNW 19:36:47 51° SW 19:42:39 24° SSE visible
02 Oct 10.9 21:35:44 10° W 21:39:33 13° WSW 21:40:06 12° SW visible
03 Oct 9.8 18:50:22 10° WNW 19:03:43 58° SW 19:12:02 15° SE visible
03 Oct 10.7 21:00:30 10° W 21:06:53 17° SW 21:09:29 15° SW visible
04 Oct 9.9 18:16:27 10° WNW 18:30:32 65° SSW 18:40:32 10° SE visible
04 Oct 10.6 20:25:50 10° W 20:34:10 22° SW 20:38:57 15° SSW visible
05 Oct 10.0 17:42:36 10° WNW 17:57:13 70° SSW 18:07:56 10° SE visible
05 Oct 10.7 19:51:26 10° W 20:01:21 27° SW 20:08:31 11° S visible
06 Oct 10.7 19:17:12 10° WNW 19:28:26 32° SW 19:36:58 10° S visible
07 Oct 10.7 18:43:04 10° WNW 18:55:26 38° SW 19:04:49 10° SSE visible
08 Oct 10.7 18:09:03 10° WNW 18:22:19 43° SW 18:32:30 10° SSE visible
09 Oct 10.7 17:35:08 10° WNW 17:49:05 49° SW 18:00:04 10° SSE visible
09 Oct 11.4 19:47:00 10° W 19:52:30 14° WSW 19:57:23 10° SSW visible
10 Oct 11.3 19:11:41 10° W 19:19:37 18° SW 19:26:26 10° SSW visible
